Powrót do katalogu

STARLINK-37067

AktywnyŁącznośćVLEO
NORAD 68086·PAYLOAD·🇺🇸 United States

Wystrzelony Mar 4, 2026 z Vandenberg Space Force Base

Loading…

Następne Przeloty (najbliższe 24 godziny)

TLE

ŚwieżeSource: CelesTrak SupGP

Epoka: Sep 15, 2026, 02:56 UTC

1 68086C 26042T   26258.12270833  .00050182  00000+0  14831-2 0  2583
2 68086  53.1595  13.0695 0001143  93.5806  94.1137 15.34356098    12

Śledź STARLINK-37067 w czasie rzeczywistym z AllMySat

Download on the App Store